Weather History for EHKD - October, 2012

Change the Weather History Date:

Saturday, October 6, 2012

  Actual Average Record
Temperature  
Mean Temperature 53 °F -  
Max Temperature 58 °F 55 °F 66 °F (2001)
Min Temperature 48 °F 46 °F 42 °F (2008)
Degree Days  
Heating Degree Days 12    
Growing Degree Days 3 (Base 50)    
Moisture  
Dew Point 47 °F    
Average Humidity 84    
Maximum Humidity 94    
Minimum Humidity 60    
Precipitation  
Precipitation 0.04 in 0.11 in - ()
Sea Level Pressure  
Sea Level Pressure 29.79 in    
Wind  
Wind Speed 7 mph ()    
Max Wind Speed 14 mph    
Max Gust Speed -    
Visibility 5.9 miles    
Events Rain    
Averages and records for this station are not official NWS values.
T = Trace of Precipitation, MM = Missing Value Source: Averaged Metar Reports

Daily Weather History Graph

Daily Weather History Graph

Search for Another Location

Airport or City:

Trip Planner

Search our weather history database for the weather conditions in past years. The results will help you decide how hot, cold, wet, or windy it might be!

Date:

Astronomy

Oct. 06, 2012 Rise Set
Actual Time 7:51 AM CEST 7:05 PM CEST
Civil Twilight 7:17 AM CEST 7:39 PM CEST
Nautical Twilight 6:37 AM CEST 8:19 PM CEST
Astronomical Twilight 5:56 AM CEST 9:00 PM CEST
Moon 10:28 PM CEST (10/6) 2:12 PM CEST (10/6)
Length of Visible Light 12h 22m
Length of Day
11h 13m
Waning Gibbous, 68% of the Moon is Illuminated
Oct 6
Waning Gibbous
Oct 8
Last Quarter
Oct 15
New
Oct 22
First Quarter
Oct 29
Full

Hourly Weather History & Observations

Time (CEST) Temp. Dew Point Humidity Pressure Visibility Wind Dir Wind Speed Gust Speed Precip Events Conditions
12:25 AM 55.4 °F 44.6 °F 67% 29.77 in 6.2 mi West 13.8 mph - N/A   Mostly Cloudy
12:55 AM 53.6 °F 46.4 °F 77% 29.77 in 6.2 mi WSW 13.8 mph - N/A   Drizzle
1:25 AM 53.6 °F 46.4 °F 77% 29.77 in 6.2 mi WSW 12.7 mph - N/A Rain Light Rain Showers
1:55 AM 51.8 °F 48.2 °F 88% 29.77 in 6.2 mi WSW 10.4 mph - N/A Rain Heavy Drizzle
2:00 AM 52 °F 47 °F 79% 29.78 in 8 mi WSW 8.9 mph - - Rain Rain
2:25 AM 51.8 °F 48.2 °F 88% 29.77 in 6.2 mi SW 8.1 mph - N/A Rain Light Rain
2:55 AM 51.8 °F 48.2 °F 88% 29.74 in 6.2 mi SW 6.9 mph - N/A Rain Light Rain
2:57 AM 51.8 °F 48.2 °F 88% 29.74 in 6.2 mi SW 6.9 mph - N/A Rain Light Rain
3:02 AM 51.8 °F 48.2 °F 88% 29.74 in 6.2 mi SW 8.1 mph - N/A Rain Light Rain
3:25 AM 51.8 °F 48.2 °F 88% 29.77 in 5.6 mi SW 6.9 mph - N/A Rain Rain
3:27 AM 51.8 °F 48.2 °F 88% 29.77 in 3.1 mi West 6.9 mph - N/A Rain Rain Showers
3:31 AM 50.0 °F 48.2 °F 94% 29.77 in 3.1 mi West 6.9 mph - N/A Rain Rain Showers
3:37 AM 50.0 °F 48.2 °F 94% 29.77 in - West 4.6 mph - N/A Rain Rain
3:55 AM 50.0 °F 48.2 °F 94% 29.77 in 6.2 mi West 3.5 mph - N/A Rain Light Rain
3:57 AM 50.0 °F 48.2 °F 94% 29.77 in 6.2 mi West 4.6 mph - N/A Rain Light Rain
4:01 AM 50.0 °F 48.2 °F 94% 29.77 in 6.2 mi West 5.8 mph - N/A Rain Rain
4:25 AM 50.0 °F 48.2 °F 94% 29.74 in 6.2 mi WNW 2.3 mph - N/A Rain Light Rain
4:29 AM 50.0 °F 48.2 °F 94% 29.74 in 6.2 mi NW 1.2 mph - N/A Rain Drizzle
4:33 AM 50.0 °F 48.2 °F 94% 29.74 in 4.3 mi NW 2.3 mph - N/A Rain Rain
4:37 AM 50.0 °F 48.2 °F 94% 29.74 in 5.0 mi NW 1.2 mph - N/A Rain Light Rain
4:55 AM 50.0 °F 48.2 °F 94% 29.74 in 6.2 mi WSW 1.2 mph - N/A Rain Light Rain
5:00 AM 50 °F 47 °F 87% 29.75 in 6 mi SW 2.2 mph - - Rain Light Rain
5:06 AM 50.0 °F 48.2 °F 94% 29.74 in 5.6 mi SSW 2.3 mph - N/A Rain Light Rain
5:10 AM 50.0 °F 48.2 °F 94% 29.74 in 5.0 mi SSW 3.5 mph - N/A Rain Light Rain
5:19 AM 50.0 °F 48.2 °F 94% 29.74 in 5.0 mi South 4.6 mph - N/A Rain Light Rain
5:25 AM 50.0 °F 48.2 °F 94% 29.74 in 3.7 mi South 4.6 mph - N/A Rain Light Rain Showers
5:27 AM 50.0 °F 48.2 °F 94% 29.74 in 5.6 mi South 5.8 mph - N/A Rain Light Rain
5:36 AM 50.0 °F 48.2 °F 94% 29.74 in 4.3 mi South 4.6 mph - N/A Rain Rain
5:41 AM 50.0 °F 48.2 °F 94% 29.71 in 5.6 mi South 2.3 mph - N/A Rain Light Rain
5:45 AM 50.0 °F 48.2 °F 94% 29.71 in 5.6 mi SSW 2.3 mph - N/A Rain Light Rain
5:55 AM 50.0 °F 48.2 °F 94% 29.71 in 6.2 mi SW 2.3 mph - N/A Rain Light Rain
6:02 AM 50.0 °F 48.2 °F 94% 29.74 in 4.3 mi SW 3.5 mph - N/A Rain Light Rain
6:06 AM 50.0 °F 48.2 °F 94% 29.74 in 3.7 mi SW 2.3 mph - N/A Rain Light Rain
6:25 AM 50.0 °F 48.2 °F 94% 29.71 in 5.6 mi NNW 3.5 mph - N/A Rain Light Rain
6:31 AM 50.0 °F 48.2 °F 94% 29.71 in 6.2 mi NW 4.6 mph - N/A Rain Light Rain Showers
6:43 AM 50.0 °F 48.2 °F 94% 29.71 in 6.2 mi NW 4.6 mph - N/A Rain Light Rain
6:55 AM 50.0 °F 48.2 °F 94% 29.71 in 6.2 mi NW 5.8 mph - N/A Rain Light Rain
6:57 AM 50.0 °F 48.2 °F 94% 29.71 in 6.2 mi NW 5.8 mph - N/A Rain Light Rain
7:01 AM 50.0 °F 48.2 °F 94% 29.71 in 6.2 mi NW 4.6 mph - N/A Rain Light Rain
7:09 AM 50.0 °F 46.4 °F 87% 29.71 in 6.2 mi NW 4.6 mph - N/A Rain Light Rain
7:25 AM 48.2 °F 46.4 °F 93% 29.71 in 6.2 mi WNW 4.6 mph - N/A Rain Light Rain
7:27 AM 48.2 °F 46.4 °F 93% 29.71 in 6.2 mi WNW 4.6 mph - N/A Rain Light Rain
7:31 AM 48.2 °F 46.4 °F 93% 29.71 in 6.2 mi WNW 3.5 mph - N/A Rain Rain
7:37 AM 48.2 °F 46.4 °F 93% 29.71 in 6.2 mi WNW 3.5 mph - N/A Rain Light Rain
7:55 AM 50.0 °F 46.4 °F 87% 29.71 in 6.2 mi NW 4.6 mph - N/A Rain Light Rain
8:00 AM 49 °F 47 °F 91% 29.74 in 6 mi NW 6.7 mph - - Rain Rain
8:07 AM 50.0 °F 46.4 °F 87% 29.71 in 6.2 mi NW 6.9 mph - N/A Rain Light Rain
8:25 AM 50.0 °F 46.4 °F 87% 29.71 in 6.2 mi NW 8.1 mph - N/A Rain Light Rain
8:33 AM 50.0 °F 46.4 °F 87% 29.74 in 6.2 mi NW 8.1 mph - N/A   Drizzle
8:37 AM 50.0 °F 46.4 °F 87% 29.74 in 3.7 mi NW 8.1 mph - N/A Rain Light Rain
8:45 AM 50.0 °F 46.4 °F 87% 29.74 in 6.2 mi NW 10.4 mph - N/A   Drizzle
8:55 AM 50.0 °F 46.4 °F 87% 29.74 in 6.2 mi NW 9.2 mph - N/A Rain Light Rain
8:58 AM 50.0 °F 46.4 °F 87% 29.74 in 6.2 mi NW 8.1 mph - N/A Rain Light Rain Showers
9:12 AM 50.0 °F 46.4 °F 87% 29.74 in 6.2 mi NW 8.1 mph - N/A Rain Light Rain
9:16 AM 50.0 °F 48.2 °F 94% 29.74 in 6.2 mi NW 8.1 mph - N/A Rain Heavy Drizzle
9:25 AM 50.0 °F 46.4 °F 87% 29.74 in 6.2 mi NW 8.1 mph - N/A Rain Light Rain
9:28 AM 50.0 °F 48.2 °F 94% 29.74 in 6.2 mi NW 6.9 mph - N/A Rain Light Rain
9:32 AM 50.0 °F 48.2 °F 94% 29.74 in 6.2 mi NW 6.9 mph - N/A Rain Light Rain
9:36 AM 50.0 °F 48.2 °F 94% 29.74 in 6.2 mi NW 6.9 mph - N/A Rain Light Rain
9:46 AM 50.0 °F 48.2 °F 94% 29.74 in 6.2 mi NW 6.9 mph - N/A Rain Light Rain
9:55 AM 50.0 °F 48.2 °F 94% 29.74 in 6.2 mi NW 6.9 mph - N/A Rain Light Rain
10:03 AM 50.0 °F 48.2 °F 94% 29.74 in 6.2 mi NW 5.8 mph - N/A   Drizzle
10:07 AM 51.8 °F 48.2 °F 88% 29.74 in 6.2 mi NW 5.8 mph - N/A   Mostly Cloudy
10:13 AM 51.8 °F 48.2 °F 88% 29.74 in 6.2 mi NW 4.6 mph - N/A   Mostly Cloudy
10:25 AM 51.8 °F 48.2 °F 88% 29.77 in 6.2 mi NW 4.6 mph - N/A   Overcast
10:55 AM 51.8 °F 48.2 °F 88% 29.77 in 6.2 mi WNW 4.6 mph - N/A   Overcast
10:56 AM 51.8 °F 48.2 °F 88% 29.77 in 6.2 mi WNW 5.8 mph - N/A   Mostly Cloudy
11:00 AM 53 °F 48 °F 78% 29.78 in 22 mi WNW 6.7 mph - - Rain Rain
11:02 AM 53.6 °F 48.2 °F 82% 29.77 in 6.2 mi WNW 5.8 mph - N/A   Mostly Cloudy
11:06 AM 53.6 °F 48.2 °F 82% 29.77 in 6.2 mi WNW 5.8 mph - N/A   Overcast
11:25 AM 53.6 °F 46.4 °F 77% 29.77 in 4.3 mi NW 5.8 mph - N/A Rain Rain
11:41 AM 51.8 °F 48.2 °F 88% 29.80 in 6.2 mi NW 3.5 mph - N/A Rain Light Rain
11:55 AM 51.8 °F 48.2 °F 88% 29.80 in 6.2 mi WNW 2.3 mph - N/A   Mostly Cloudy
12:25 PM 53.6 °F 50.0 °F 88% 29.80 in 6.2 mi WNW 4.6 mph - N/A   Overcast
12:39 PM 55.4 °F 51.8 °F 88% 29.80 in 6.2 mi WNW 5.8 mph - N/A   Mostly Cloudy
12:44 PM 57.2 °F 51.8 °F 82% 29.80 in 6.2 mi WNW 8.1 mph - N/A   Mostly Cloudy
12:48 PM 55.4 °F 48.2 °F 77% 29.83 in 6.2 mi NW 10.4 mph - N/A   Overcast
12:55 PM 55.4 °F 48.2 °F 77% 29.83 in 6.2 mi NW 11.5 mph - N/A   Mostly Cloudy
12:57 PM 57.2 °F 50.0 °F 77% 29.83 in 6.2 mi NW 10.4 mph - N/A   Mostly Cloudy
1:25 PM 57.2 °F 48.2 °F 72% 29.83 in 6.2 mi NW 11.5 mph - N/A   Mostly Cloudy
1:53 PM 57.2 °F 46.4 °F 67% 29.83 in 6.2 mi NW 11.5 mph - N/A   Partly Cloudy
1:55 PM 57.2 °F 48.2 °F 72% 29.83 in 6.2 mi NW 11.5 mph - N/A   Scattered Clouds
2:00 PM 57 °F 49 °F 65% 29.85 in 25 mi NW 11.2 mph - -   Partly Cloudy
2:25 PM 57.2 °F 48.2 °F 72% 29.86 in 6.2 mi WNW 11.5 mph - N/A   Partly Cloudy
2:40 PM 57.2 °F 46.4 °F 67% 29.86 in 6.2 mi NW 12.7 mph - N/A   Scattered Clouds
2:47 PM 57.2 °F 46.4 °F 67% 29.86 in 6.2 mi NW 11.5 mph - N/A   Partly Cloudy
2:55 PM 57.2 °F 46.4 °F 67% 29.86 in 6.2 mi NW 10.4 mph - N/A   Unknown
3:25 PM 57.2 °F 46.4 °F 67% 29.86 in 6.2 mi NW 11.5 mph - N/A   Partly Cloudy
3:55 PM 57.2 °F 46.4 °F 67% 29.89 in 6.2 mi WNW 9.2 mph - N/A   Scattered Clouds
4:25 PM 57.2 °F 46.4 °F 67% 29.89 in 6.2 mi WNW 12.7 mph - N/A   Scattered Clouds
4:55 PM 57.2 °F 46.4 °F 67% 29.89 in 6.2 mi West 12.7 mph - N/A   Partly Cloudy
5:00 PM 56 °F 46 °F 60% 29.91 in 22 mi WNW 11.2 mph - -   Scattered Clouds
5:25 PM 55.4 °F 46.4 °F 72% 29.89 in 6.2 mi WNW 10.4 mph - N/A   Partly Cloudy
5:55 PM 55.4 °F 44.6 °F 67% 29.92 in 6.2 mi WNW 10.4 mph - N/A   Partly Cloudy
6:25 PM 53.6 °F 44.6 °F 72% 29.92 in 6.2 mi WNW 8.1 mph - N/A   Unknown
6:55 PM 53.6 °F 42.8 °F 67% 29.92 in 6.2 mi WNW 8.1 mph - N/A   Partly Cloudy
7:25 PM 51.8 °F 42.8 °F 71% 29.92 in 6.2 mi WNW 5.8 mph - N/A   Partly Cloudy
7:55 PM 51.8 °F 42.8 °F 71% 29.95 in 6.2 mi WNW 5.8 mph - N/A   Unknown
8:00 PM 51 °F 42 °F 63% 29.95 in 28 mi WNW 6.7 mph - -   Partly Cloudy
8:09 PM 51.8 °F 42.8 °F 71% 29.95 in 6.2 mi WNW 5.8 mph - N/A   Partly Cloudy
8:25 PM 50.0 °F 42.8 °F 76% 29.95 in 6.2 mi WNW 5.8 mph - N/A   Unknown
8:55 PM 51.8 °F 42.8 °F 71% 29.95 in 6.2 mi WNW 5.8 mph - N/A   Partly Cloudy
9:25 PM 51.8 °F 44.6 °F 76% 29.95 in 6.2 mi WNW 6.9 mph - N/A   Scattered Clouds
9:55 PM 51.8 °F 42.8 °F 71% 29.95 in 6.2 mi WNW 6.9 mph - N/A   Unknown
10:25 PM 50.0 °F 42.8 °F 76% 29.95 in 6.2 mi WNW 5.8 mph - N/A   Mostly Cloudy
10:55 PM 51.8 °F 44.6 °F 76% 29.95 in 6.2 mi WNW 5.8 mph - N/A   Mostly Cloudy
11:00 PM 52 °F 44 °F 66% 29.98 in 28 mi WNW 6.7 mph - -   Overcast
11:25 PM 53.6 °F 44.6 °F 72% 29.98 in 6.2 mi WNW 4.6 mph - N/A   Overcast
11:55 PM 51.8 °F 44.6 °F 76% 29.98 in 6.2 mi WNW 5.8 mph - N/A   Mostly Cloudy